Regional Weather Roundup
Issued by NWS Bismarck, ND

Home | Current Version | Previous Version | Text Only | Print | Product List | Glossary On
Versions: 1 2 3 4 5 6 7 8 9 10 11 12 13 14 15 16 17 18 19 20 21 22 23 24 25 26 27 28 29 30 31 32 33 34 35 36 37 38 39 40 41 42 43 44 45 46 47 48 49 50
000
ASUS43 KBIS 270420
RWRBIS

NWR BROADCAST TEXT
NATIONAL WEATHER SERVICE BISMARCK ND
1000 PM CST WED NOV 26 2014

NOTE: "FAIR" INDICATES FEW OR NO CLOUDS BELOW 12,000 FEET WITH NO
SIGNIFICANT WEATHER AND/OR OBSTRUCTIONS TO VISIBILITY.


CITY           SKY/WX    TMP DP  RH WIND       PRES   REMARKS
WILLISTON      CLOUDY     8   3  80 CALM      30.38S
MINOT          CLOUDY   -13 -18  78 S5        30.44S WCI -25
MINOT AFB      CLOUDY   -23 -29  73 SW6       30.45S WCI -39
BISMARCK       CLOUDY    -5 -10  79 E3        30.47R
DICKINSON      PTCLDY    10   6  84 SE8       30.31S WCI  -2
GARRISON         N/A     -3  -7  82 E7        30.42F WCI -16
HETTINGER ARPT CLOUDY    11   8  88 SE10      30.34R WCI  -3
JAMESTOWN      MOCLDY   -20 -23  86 NW6       30.48R WCI -35
BEACH          CLOUDY    12  12 100 E8        30.29F WCI   1
CARRINGTON     FAIR     -18 -22  83 W8        30.49R WCI -37
CROSBY         CLOUDY    -4  -8  84 SE5       30.37F WCI -15
HARVEY         FAIR     -17 -20  83 CALM      30.47S
HAZEN          CLOUDY     3   0  85 SE3       30.44S
LINTON         FAIR      -8 -11  84 SE3       30.45S
MANDAN         CLOUDY     0  -4  85 SE6       30.43S WCI -12
OAKES            N/A     -9 -13  84 NW6       30.50R WCI -23
RUGBY          FAIR     -11 -15  84 W6        30.47S WCI -25
STANLEY        CLOUDY    -8  -9  92 CALM      30.37S
TIOGA          CLOUDY    -2  -4  92 E6        30.39S WCI -14
$$

CITY           SKY/WX    TMP DP  RH WIND       PRES   REMARKS
GRAND FORKS    PTCLDY   -13 -17  82 NW3       30.55S
GRAND FORKS AF PTCLDY   -13 -18  77 NW5       30.54S WCI -25
DEVILS LAKE    PTCLDY    -9 -22  54 W3        30.46S
FARGO          PTCLDY    -6 -11  79 CALM      30.54R
CANDO          FAIR     -13 -17  84 W6        30.49R WCI -27
CAVALIER       FAIR     -13 -18  77 CALM      30.55R
GRAFTON        FAIR      -6 -11  77 NW3       30.56R
GWINNER        CLEAR     -4 -11  71 N8        30.52R WCI -19
LANGDON        FAIR     -15 -20  76 SW7       30.45R WCI -31
ROLLA          FAIR     -11 -17  77 SW8       30.44R WCI -28
WALHALLA         N/A    -13 -17  84 SW3       30.54S
$$

CITY           SKY/WX    TMP DP  RH WIND       PRES   REMARKS
ABERDEEN       PTCLDY    -4  -9  79 N7        30.51R WCI -18
MOBRIDGE       PTCLDY     3  -2  79 E12       30.42R WCI -13
BUFFALO          N/A     21  17  84 SE6       30.22F WCI  13
RAPID CITY     CLOUDY    28  24  85 E6        30.28R
GLASGOW        CLOUDY    16  10  77 E21       30.24F WCI  -1
SIDNEY         PTCLDY    10   9  92 CALM      30.36F
WOLF POINT     MOCLDY    14   8  77 E7        30.32F WCI   4
GLENDIVE       MOCLDY    14  10  85 NE7       30.29F WCI   4
MILES CITY     LGT SNOW  26  23  88 E3        30.25S FOG
BAKER          CLOUDY    21  17  84 SE7       30.27F WCI  12
$$

CITY           SKY/WX    TMP DP  RH WIND       PRES   REMARKS
BILLINGS       CLOUDY    28  27  96 SE6       30.13F FOG
GREAT FALLS    FOG       26  26 100 CALM      30.02F VSB 1/4
REGINA         FLURRIES  -2  -8  78 SE13      30.34F WCI -21
ESTEVAN        PTCLDY   -15 -18  84 SE6       30.39S WCI -29
$$




USA.gov is the U.S. government's official web portal to all federal, state and local government web resources and services.